TimeAST,TemperatureF,Dew PointF,Humidity,Sea Level PressureIn,VisibilityMPH,Wind Direction,Wind SpeedMPH,Gust SpeedMPH,PrecipitationIn,Events,Conditions,WindDirDegrees,DateUTC
12:00 AM,41.5,37.9,87,30.40,-9999.0,NNE,10.4,-,N/A,,Unknown,30,2012-11-15 04:00:00
12:20 AM,41.4,37.8,87,-9999,-9999.0,NNE,10.4,-,N/A,,Unknown,30,2012-11-15 04:20:00
12:40 AM,41.9,38.1,86,-9999,-9999.0,NNE,10.4,-,N/A,,Unknown,30,2012-11-15 04:40:00
1:00 AM,42.1,38.3,86,30.39,-9999.0,NNE,11.5,-,N/A,,Unknown,30,2012-11-15 05:00:00
1:20 AM,41.9,37.9,86,-9999,-9999.0,NNE,11.5,-,N/A,,Unknown,30,2012-11-15 05:20:00
1:40 AM,41.9,37.6,85,-9999,-9999.0,NNE,12.7,-,N/A,,Unknown,30,2012-11-15 05:40:00
2:00 AM,41.2,37.0,85,30.38,-9999.0,NNE,12.7,-,N/A,,Unknown,30,2012-11-15 06:00:00
2:20 AM,40.8,36.7,85,-9999,-9999.0,NNE,10.4,-,N/A,,Unknown,30,2012-11-15 06:20:00
2:40 AM,40.6,36.7,86,-9999,-9999.0,NNE,10.4,-,N/A,,Unknown,30,2012-11-15 06:40:00
3:00 AM,40.1,36.1,86,30.38,-9999.0,NE,11.5,-,N/A,,Unknown,40,2012-11-15 07:00:00
3:20 AM,40.5,36.5,86,-9999,-9999.0,NNE,9.2,-,N/A,,Unknown,30,2012-11-15 07:20:00
3:40 AM,41.0,36.9,85,-9999,-9999.0,NNE,10.4,-,N/A,,Unknown,30,2012-11-15 07:40:00
4:00 AM,41.4,36.9,84,30.37,-9999.0,NNE,12.7,-,N/A,,Unknown,30,2012-11-15 08:00:00
4:20 AM,41.7,36.9,83,-9999,-9999.0,NNE,13.8,-,N/A,,Unknown,30,2012-11-15 08:20:00
4:40 AM,40.5,36.1,85,-9999,-9999.0,NNE,11.5,-,N/A,,Unknown,30,2012-11-15 08:40:00
5:00 AM,40.5,36.5,86,30.37,-9999.0,NNE,13.8,-,N/A,,Unknown,30,2012-11-15 09:00:00
5:20 AM,40.1,35.8,85,-9999,-9999.0,NNE,11.5,-,N/A,,Unknown,30,2012-11-15 09:20:00
5:40 AM,39.7,35.4,85,-9999,-9999.0,NNE,10.4,-,N/A,,Unknown,30,2012-11-15 09:40:00
6:00 AM,39.4,35.4,86,30.36,-9999.0,NNE,11.5,-,N/A,,Unknown,30,2012-11-15 10:00:00
6:20 AM,39.6,35.4,85,-9999,-9999.0,NNE,8.1,-,N/A,,Unknown,30,2012-11-15 10:20:00
6:40 AM,40.5,36.1,85,-9999,-9999.0,NNE,9.2,-,N/A,,Unknown,20,2012-11-15 10:40:00
7:00 AM,41.5,37.0,84,30.36,-9999.0,NNE,11.5,-,N/A,,Unknown,20,2012-11-15 11:00:00
7:20 AM,40.5,36.1,85,-9999,-9999.0,NNE,8.1,-,N/A,,Unknown,20,2012-11-15 11:20:00
7:40 AM,39.7,35.8,86,-9999,-9999.0,NE,5.8,-,N/A,,Unknown,40,2012-11-15 11:40:00
8:00 AM,41.0,37.0,86,30.37,-9999.0,NNE,11.5,-,N/A,,Unknown,20,2012-11-15 12:00:00
8:20 AM,41.7,37.2,84,-9999,-9999.0,NNE,8.1,-,N/A,,Unknown,30,2012-11-15 12:20:00
8:40 AM,42.4,37.4,82,-9999,-9999.0,NNE,9.2,-,N/A,,Unknown,20,2012-11-15 12:40:00
9:00 AM,43.0,37.8,82,30.36,-9999.0,NNE,11.5,18.4,N/A,,Unknown,20,2012-11-15 13:00:00
9:20 AM,43.7,38.3,81,-9999,-9999.0,North,13.8,-,N/A,,Unknown,360,2012-11-15 13:20:00
9:40 AM,44.2,38.5,80,-9999,-9999.0,North,12.7,-,N/A,,Unknown,10,2012-11-15 13:40:00
10:00 AM,45.0,39.0,80,30.33,-9999.0,NNE,13.8,-,N/A,,Unknown,30,2012-11-15 14:00:00
10:20 AM,45.9,40.1,80,-9999,-9999.0,North,10.4,-,N/A,,Unknown,10,2012-11-15 14:20:00
10:40 AM,46.2,40.3,80,-9999,-9999.0,NNE,11.5,-,N/A,,Unknown,20,2012-11-15 14:40:00
11:00 AM,46.8,40.6,79,30.32,-9999.0,NNE,11.5,-,N/A,,Unknown,30,2012-11-15 15:00:00
11:20 AM,47.1,41.4,80,-9999,-9999.0,North,9.2,-,N/A,,Unknown,10,2012-11-15 15:20:00
11:40 AM,47.5,40.8,78,-9999,-9999.0,NE,11.5,17.3,N/A,,Unknown,40,2012-11-15 15:40:00
12:00 PM,48.0,41.4,78,30.29,-9999.0,NE,11.5,-,N/A,,Unknown,40,2012-11-15 16:00:00
12:20 PM,48.2,41.5,78,-9999,-9999.0,NNE,8.1,-,N/A,,Unknown,30,2012-11-15 16:20:00
12:40 PM,48.4,41.5,77,-9999,-9999.0,NE,11.5,17.3,N/A,,Unknown,40,2012-11-15 16:40:00
1:00 PM,48.6,41.7,77,30.27,-9999.0,NNE,12.7,-,N/A,,Unknown,30,2012-11-15 17:00:00
1:20 PM,49.1,41.9,76,-9999,-9999.0,NNE,8.1,18.4,N/A,,Unknown,20,2012-11-15 17:20:00
1:40 PM,49.6,42.6,77,-9999,-9999.0,NE,6.9,-,N/A,,Unknown,50,2012-11-15 17:40:00
2:00 PM,48.6,41.5,77,30.26,-9999.0,NE,11.5,19.6,N/A,,Unknown,40,2012-11-15 18:00:00
2:20 PM,49.6,42.1,75,-9999,-9999.0,ENE,5.8,-,N/A,,Unknown,70,2012-11-15 18:20:00
2:40 PM,48.0,40.6,76,-9999,-9999.0,ENE,11.5,20.7,N/A,,Unknown,60,2012-11-15 18:40:00
3:00 PM,48.7,41.4,76,30.25,-9999.0,NE,11.5,-,N/A,,Unknown,50,2012-11-15 19:00:00
3:20 PM,48.0,40.5,75,-9999,-9999.0,NNE,11.5,17.3,N/A,,Unknown,30,2012-11-15 19:20:00
3:40 PM,47.8,41.0,77,-9999,-9999.0,NNE,9.2,-,N/A,,Unknown,30,2012-11-15 19:40:00
4:00 PM,47.3,40.6,78,30.25,-9999.0,NNE,11.5,-,N/A,,Unknown,30,2012-11-15 20:00:00
4:20 PM,46.8,40.5,79,-9999,-9999.0,NNE,11.5,-,N/A,,Unknown,30,2012-11-15 20:20:00
4:40 PM,46.4,40.5,80,-9999,-9999.0,NNE,9.2,-,N/A,,Unknown,30,2012-11-15 20:40:00
5:00 PM,46.2,40.3,80,30.26,-9999.0,NE,11.5,-,N/A,,Unknown,50,2012-11-15 21:00:00
5:20 PM,45.9,40.3,81,-9999,-9999.0,NE,5.8,-,N/A,,Unknown,50,2012-11-15 21:20:00
6:00 PM,45.5,40.6,83,30.25,-9999.0,NNE,9.2,-,N/A,,Unknown,20,2012-11-15 22:00:00
7:00 PM,45.5,41.0,84,30.24,-9999.0,North,11.5,-,N/A,,Unknown,360,2012-11-15 23:00:00
7:20 PM,45.3,40.8,84,-9999,-9999.0,North,10.4,-,N/A,,Unknown,10,2012-11-15 23:20:00
7:40 PM,45.1,40.8,85,-9999,-9999.0,North,6.9,-,N/A,,Unknown,10,2012-11-15 23:40:00
8:00 PM,45.5,41.2,85,30.21,-9999.0,North,11.5,-,N/A,,Unknown,350,2012-11-16 00:00:00
8:20 PM,45.7,41.0,84,-9999,-9999.0,North,10.4,-,N/A,,Unknown,350,2012-11-16 00:20:00
8:40 PM,45.7,40.8,83,-9999,-9999.0,North,9.2,-,N/A,,Unknown,360,2012-11-16 00:40:00
9:00 PM,45.0,40.1,83,30.21,-9999.0,NNE,10.4,-,N/A,,Unknown,30,2012-11-16 01:00:00
9:20 PM,45.0,39.9,82,-9999,-9999.0,NNE,8.1,-,N/A,,Unknown,20,2012-11-16 01:20:00
9:40 PM,45.3,40.1,82,-9999,-9999.0,North,8.1,-,N/A,,Unknown,10,2012-11-16 01:40:00
10:00 PM,45.1,39.9,82,30.19,-9999.0,NNE,8.1,-,N/A,,Unknown,20,2012-11-16 02:00:00
10:20 PM,45.1,40.5,84,-9999,-9999.0,NNE,8.1,-,N/A,,Unknown,20,2012-11-16 02:20:00
10:40 PM,44.8,40.3,84,-9999,-9999.0,NNE,8.1,-,N/A,,Unknown,20,2012-11-16 02:40:00
11:00 PM,43.9,39.7,85,30.16,-9999.0,NE,8.1,-,N/A,,Unknown,40,2012-11-16 03:00:00
11:20 PM,44.2,40.1,85,-9999,-9999.0,NNE,6.9,-,N/A,,Unknown,20,2012-11-16 03:20:00
11:40 PM,43.9,39.9,86,-9999,-9999.0,NNE,4.6,-,N/A,,Unknown,30,2012-11-16 03:40:00